Meteo Giornale » Osservazioni meteo Olanda » De Kooy
ore: 19:55 - Osservazioni Meteo De Kooy
Lat. 52° 55' N Lon. 4° 47' E Alt. 0 metri s.l.m.
17 °C
Nuvoloso
Temp. 24 Ore
17 °C
20 °C
Ovest/Sud-Ovest
13 Km/h
Dew point 12 °C
Umidità 72 %
Visibilità 10 Km
Il sole sorge alle ore 06:51
Il sole tramonta alle ore 20:30
| Data e Ora | Cielo e Fenomeni | T °C | DP °C | Um. % | Pres. hPa | Vis. km | Vento km/h | |
|---|---|---|---|---|---|---|---|---|
| Oggi h: 19:55 | Nuvoloso | 17 | 12 | 72 | 1019 | 10 | O/SO 13 | |
| Oggi h: 19:25 | Nuvoloso | 18 | 12 | 67 | 1019 | 10 | O 16.7 | |
| Oggi h: 18:55 | Poco Nuvoloso | 19 | 12 | 63 | 1019 | 10 | O 20.3 | |
| Oggi h: 18:25 | Poco Nuvoloso | 19 | 12 | 63 | 1019 | 10 | O 20.3 | |
| Oggi h: 17:55 | Sereno | 19 | 13 | 68 | 1019 | 10 | O 20.3 | |
| Oggi h: 17:25 | Molto Nuvoloso | 19 | 13 | 68 | 1019 | 10 | O 20.3 | |
| Oggi h: 16:55 | Coperto | 19 | 12 | 63 | 1019 | 10 | O/SO 22.2 | |
| Oggi h: 16:25 | Coperto | 20 | 13 | 64 | 1019 | 10 | O 22.2 | |
| Oggi h: 15:55 | Molto Nuvoloso | 19 | 13 | 68 | 1019 | 10 | O 20.3 | |
| Oggi h: 15:25 | Nuvoloso | 19 | 12 | 63 | 1019 | 10 | O 24 | |
| Oggi h: 14:55 | Poco Nuvoloso | 19 | 12 | 63 | 1019 | 10 | O 24 | |
| Oggi h: 14:25 | Molto Nuvoloso | 19 | 13 | 68 | 1019 | 10 | O 22.2 | |
| Oggi h: 13:55 | Molto Nuvoloso | 19 | 12 | 63 | 1019 | 10 | O 24 | |
| Oggi h: 13:25 | Nuvoloso | 19 | 13 | 68 | 1019 | 10 | O 24 | |
| Oggi h: 12:55 | Molto Nuvoloso | 18 | 12 | 67 | 1019 | 10 | O 25.9 | |
| Oggi h: 12:25 | Molto Nuvoloso | 19 | 12 | 63 | 1018 | 10 | O 22.2 | |
| Oggi h: 11:55 | Molto Nuvoloso | 18 | 11 | 63 | 1018 | 10 | O 27.8 | |
| Oggi h: 11:25 | Poco Nuvoloso | 19 | 12 | 63 | 1018 | 10 | O 27.8 | |
| Oggi h: 10:55 | Nuvoloso | 18 | 12 | 67 | 1018 | 10 | O 25.9 | |
| Oggi h: 10:25 | Molto Nuvoloso | 18 | 12 | 67 | 1017 | 10 | O 24 | |
| Oggi h: 09:55 | Coperto | 18 | 12 | 67 | 1017 | 10 | O 24 | |
| Oggi h: 09:25 | Molto Nuvoloso | 17 | 12 | 72 | 1017 | 10 | O 20.3 | |
| Oggi h: 08:55 | Coperto | 17 | 12 | 72 | 1017 | 10 | O 20.3 | |
| Oggi h: 08:25 | Coperto | 17 | 12 | 72 | 1016 | 10 | O 20.3 | |
| Oggi h: 07:55 | Coperto | 17 | 12 | 72 | 1016 | 10 | O 22.2 | |
| Oggi h: 07:25 | Coperto | 17 | 12 | 72 | 1016 | 10 | O 22.2 | |
| Oggi h: 06:55 | Coperto | 17 | 13 | 77 | 1016 | 10 | O 20.3 | |
| Oggi h: 06:25 | Coperto | 17 | 13 | 77 | 1015 | 10 | O 20.3 | |
| Oggi h: 05:55 | Molto Nuvoloso | 17 | 14 | 82 | 1015 | 10 | O 22.2 | |
| Oggi h: 05:25 | Coperto | 17 | 14 | 82 | 1015 | 10 | O 18.5 | |
| Oggi h: 04:55 | Coperto | 17 | 14 | 82 | 1015 | 10 | O 16.7 | |
| Oggi h: 04:25 | Coperto | 17 | 14 | 82 | 1015 | 10 | O 13 | |
| Oggi h: 03:55 | Sereno | 18 | 14 | 77 | 1015 | 10 | O 18.5 | |
| Oggi h: 03:25 | Poco Nuvoloso | 18 | 14 | 77 | 1015 | 10 | O 16.7 | |
| Oggi h: 02:55 | Nuvoloso | 18 | 15 | 82 | 1015 | 10 | O/NO 16.7 | |
| Oggi h: 02:25 | Nuvoloso | 18 | 15 | 82 | 1015 | 10 | O/NO 16.7 | |
| Oggi h: 01:25 | Molto Nuvoloso | 18 | 15 | 82 | 1014 | 10 | O 13 | |
| Oggi h: 00:55 | Molto Nuvoloso | 19 | 15 | 77 | 1014 | 10 | O 16.7 | |
| Oggi h: 00:25 | Molto Nuvoloso | 19 | 15 | 77 | 1014 | 10 | O 18.5 | |
| Ieri h: 23:55 | Coperto | 19 | 15 | 77 | 1014 | 10 | O 16.7 | |
| Ieri h: 23:25 | Coperto | 18 | 15 | 82 | 1014 | 10 | O 16.7 | |
| Ieri h: 22:55 | Coperto | 18 | 15 | 82 | 1014 | 10 | O 18.5 | |
| Ieri h: 22:25 | Poco Nuvoloso | 18 | 15 | 82 | 1013 | 10 | O 18.5 | |
| Ieri h: 21:55 | Sereno | 18 | 15 | 82 | 1013 | 10 | O 18.5 | |
| Ieri h: 21:25 | Poco Nuvoloso | 18 | 14 | 77 | 1013 | 10 | O 22.2 | |
| Ieri h: 20:55 | Poco Nuvoloso | 18 | 14 | 77 | 1012 | 10 | O 18.5 | |



